Marathon, FL

2:17 AM EST on January 18, 2018 (GMT -0500)
Florida Keys Marathon

Weather History for KMTH - February, 2014

Change the Weather History Date:

Saturday, February 8, 2014

  Actual Average Record
Temperature  
Mean Temperature 79 °F 71 °F  
Max Temperature 85 °F 77 °F 87 °F (2008)
Min Temperature 73 °F 66 °F 54 °F (2016)
Degree Days  
Heating Degree Days 0 1  
Month to date heating degree days 0 4  
Since 1 July heating degree days 34 63  
Cooling Degree Days 14 7  
Month to date cooling degree days 115 51  
Year to date cooling degree days 299 232  
Growing Degree Days 28 (Base 50)    
Moisture  
Dew Point 71 °F    
Average Humidity 80    
Maximum Humidity 94    
Minimum Humidity 65    
Precipitation  
Precipitation 0.00 in 0.07 in 1.69 in (2000)
Month to date precipitation T 0.51  
Year to date precipitation 3.29 2.12  
Snow  
Snow 0.00 in - - ()
Month to date snowfall 0.0  
Since 1 July snowfall 0.0  
Snow Depth 0.00 in    
Sea Level Pressure  
Sea Level Pressure 30.06 in    
Wind  
Wind Speed 4 mph (ENE)    
Max Wind Speed 10 mph    
Max Gust Speed 14 mph    
Visibility 10 miles    
Events      
T = Trace of Precipitation, MM = Missing Value Source: NWS Daily Summary

Daily Weather History Graph

Daily Weather History Graph

Search for Another Location

Airport or City:

Trip Planner

Search our weather history database for the weather conditions in past years. The results will help you decide how hot, cold, wet, or windy it might be!

Date:

Astronomy

Feb. 08, 2014 Rise Set
Actual Time 7:02 AM EST 6:14 PM EST
Civil Twilight 6:39 AM EST 6:37 PM EST
Nautical Twilight 6:12 AM EST 7:04 PM EST
Astronomical Twilight 5:45 AM EST 7:31 PM EST
Moon 1:16 PM EST (2/8) 2:05 AM EST (2/8)
Length of Visible Light 11h 58m
Length of Day
11h 11m
Waxing Gibbous, 68% of the Moon is Illuminated
Feb 8
Waxing Gibbous
Feb 14
Full
Feb 22
Last Quarter
Mar 1
New
Mar 8
First Quarter

Hourly Weather History & Observations

Time (EST) Temp. Heat Index Dew Point Humidity Pressure Visibility Wind Dir Wind Speed Gust Speed Precip Events Conditions
12:53 AM 75.9 °F - 70.0 °F 82% 30.08 in 10.0 mi Variable 3.5 mph - N/A   Partly Cloudy
1:53 AM 75.9 °F - 70.0 °F 82% 30.08 in 10.0 mi East 4.6 mph - N/A   Clear
2:28 AM 75.9 °F - 71.1 °F 85% 30.07 in 10.0 mi East 4.6 mph - N/A   Mostly Cloudy
2:39 AM 75.9 °F - 70.0 °F 82% 30.07 in 10.0 mi Calm Calm - N/A   Mostly Cloudy
2:53 AM 75.9 °F - 71.1 °F 85% 30.06 in 10.0 mi Calm Calm - N/A   Scattered Clouds
3:53 AM 73.9 °F - 70.0 °F 87% 30.05 in 10.0 mi Calm Calm - N/A   Scattered Clouds
4:53 AM 75.0 °F - 71.1 °F 87% 30.05 in 10.0 mi Calm Calm - N/A   Partly Cloudy
5:07 AM 75.9 °F - 71.1 °F 85% 30.05 in 10.0 mi East 3.5 mph - N/A   Mostly Cloudy
5:39 AM 75.9 °F - 71.1 °F 85% 30.06 in 10.0 mi SE 6.9 mph - N/A   Scattered Clouds
5:53 AM 75.9 °F - 71.1 °F 85% 30.06 in 10.0 mi SE 4.6 mph - N/A   Clear
6:53 AM 75.9 °F - 70.0 °F 82% 30.07 in 10.0 mi Variable 5.8 mph - N/A   Clear
7:53 AM 77.0 °F - 71.1 °F 82% 30.08 in 10.0 mi SE 5.8 mph - N/A   Clear
8:53 AM 79.0 °F - 72.0 °F 79% 30.08 in 10.0 mi SE 5.8 mph - N/A   Clear
9:53 AM 81.0 °F 85.2 °F 72.0 °F 74% 30.10 in 10.0 mi SSE 6.9 mph - N/A   Clear
10:53 AM 82.9 °F 88.0 °F 72.0 °F 69% 30.09 in 10.0 mi SSE 4.6 mph - N/A   Clear
11:53 AM 82.9 °F 88.0 °F 72.0 °F 69% 30.07 in 10.0 mi SSE 5.8 mph - N/A   Clear
12:53 PM 82.9 °F 87.5 °F 71.1 °F 67% 30.05 in 10.0 mi SSE 5.8 mph - N/A   Partly Cloudy
1:53 PM 84.0 °F 89.6 °F 72.0 °F 67% 30.03 in 10.0 mi Variable 4.6 mph - N/A   Clear
2:53 PM 82.0 °F 86.7 °F 72.0 °F 71% 30.01 in 10.0 mi Variable 4.6 mph - N/A   Clear
3:53 PM 82.0 °F 86.3 °F 71.1 °F 69% 30.01 in 10.0 mi SSW 3.5 mph - N/A   Clear
4:53 PM 80.1 °F 83.6 °F 71.1 °F 74% 30.02 in 10.0 mi South 3.5 mph - N/A   Overcast
5:53 PM 79.0 °F - 71.1 °F 77% 30.03 in 10.0 mi Calm Calm - N/A   Clear
6:53 PM 77.0 °F - 71.1 °F 82% 30.03 in 10.0 mi Calm Calm - N/A   Clear
7:53 PM 77.0 °F - 71.1 °F 82% 30.05 in 10.0 mi Calm Calm - N/A   Partly Cloudy
8:18 PM 77.0 °F - 71.1 °F 82% 30.05 in 10.0 mi Calm Calm - N/A   Mostly Cloudy
8:28 PM 77.0 °F - 71.1 °F 82% 30.06 in 10.0 mi NW 3.5 mph - N/A   Scattered Clouds
8:53 PM 78.1 °F - 73.9 °F 87% 30.07 in 10.0 mi North 8.1 mph - N/A   Partly Cloudy
9:08 PM 75.9 °F - 73.0 °F 91% 30.07 in 10.0 mi North 6.9 mph - N/A   Mostly Cloudy
9:23 PM 77.0 °F - 73.0 °F 88% 30.07 in 10.0 mi North 6.9 mph - N/A   Scattered Clouds
9:53 PM 75.9 °F - 73.0 °F 91% 30.07 in 10.0 mi NNW 8.1 mph - N/A   Scattered Clouds
10:10 PM 75.0 °F - 73.0 °F 94% 30.07 in 10.0 mi NNW 9.2 mph - N/A   Mostly Cloudy
10:53 PM 75.0 °F - 72.0 °F 90% 30.07 in 10.0 mi North 8.1 mph - N/A   Overcast
11:15 PM 75.0 °F - 72.0 °F 90% 30.07 in 10.0 mi North 6.9 mph - N/A   Mostly Cloudy
11:30 PM 75.0 °F - 72.0 °F 90% 30.07 in 10.0 mi North 9.2 mph - N/A   Mostly Cloudy
11:39 PM 75.0 °F - 71.1 °F 87% 30.07 in 10.0 mi North 8.1 mph - N/A   Scattered Clouds
11:53 PM 75.0 °F - 71.1 °F 87% 30.06 in 10.0 mi North 6.9 mph - N/A   Partly Cloudy